Regional Weather Roundup
Issued by NWS

Home | Current Version | Previous Version | Graphics & Text | Print | Product List | Glossary Off
Versions: 1 2 3 4 5 6 7 8 9 10 11 12 13 14 15 16 17 18 19 20 21 22 23 24 25 26 27 28 29 30 31 32 33 34 35 36 37 38 39 40 41 42 43 44 45 46 47 48 49 50

000
ASUS43 KLOT 231410
RWRIL

ILLINOIS REGIONAL WEATHER ROUNDUP
NATIONAL WEATHER SERVICE CHICAGO/ROMEOVILLE IL
900 AM CDT WED JUL 23 2014

NOTE: "FAIR" INDICATES FEW OR NO CLOUDS BELOW 12,000 FEET WITH NO
SIGNIFICANT WEATHER AND/OR OBSTRUCTIONS TO VISIBILITY.

* THESE STATIONS ARE NOT UNDER NWS QUALITY CONTROL. THEY ALSO MAY NOT
  REPORT WEATHER SUCH AS PRECIPITATION OR FOG.

ILZ001-002-007-009-015-016-024-231500-
NORTHWEST ILLINOIS

CITY           SKY/WX    TMP DP  RH WIND       PRES   REMARKS
MOLINE         SUNNY     72  62  71 NE10      30.15R
STERLING*      SUNNY     72  61  68 NE10G17   30.17R
SAVANNA*       SUNNY     71  58  64 NE14      30.17R
$$

ILZ003-004-008-010-011-017-018-231500-
NORTH CENTRAL ILLINOIS

CITY           SKY/WX    TMP DP  RH WIND       PRES   REMARKS
ROCKFORD       MOSUNNY   69  55  60 NE20G25   30.19R
FREEPORT*      SUNNY     65  58  80 NE10      30.21R
ROCHELLE*      SUNNY     68  56  65 NE17      30.17R
DE KALB*       SUNNY     66  56  70 NE17G23   30.16S
PERU*          SUNNY     68  57  67 NE16G24   30.15R
$$

ILZ005-006-012>014-019>023-231500-
NORTHEAST ILLINOIS

CITY           SKY/WX    TMP DP  RH WIND       PRES   REMARKS
CHICAGO-OHARE  MOSUNNY   68  54  60 N20       30.14R
CHICAGO-MIDWAY MOSUNNY   69  58  67 NE18G28   30.13R
AURORA         SUNNY     69  55  60 NE16G23   30.15R
LANSING*       MOSUNNY   65  56  72 NE17G25   30.13S
JOLIET*        SUNNY     68  55  61 NE15G22   30.14R
WAUKEGAN       SUNNY     65  55  70 N10G21    30.16R
DUPAGE AIRPORT SUNNY     69  56  62 N16       30.14R
KANKAKEE*      MOSUNNY   69  60  73 N13G21    30.11S
WHEELING       SUNNY     67  56  67 N20G28    30.16R
MORRIS*        SUNNY     70  57  63 NE7       30.13R
ROMEOVILLE*    SUNNY     68  56  66 NE17G23   30.13R
NORTHERLY ISL    N/A     64  58  80 N12         N/A
$$

LMZ740>746-231500-
SOUTHERN LAKE MICHIGAN

STATION/POSITION SKY/WX   TEMP    WIND        PRES    VSBY  WAVE
                          AIR SEA DIR/SP/G                  HT/PER
                          (F)     (DEG/KT/KT) (MB)    (MI)  (FT/S)
SOUTHERN BUOY              60 59  360/ 17/ 21 1019.9R         5/ 6
WAUKEGAN HARBOR            62      10/ 20/ 25 1022.0S
HARRISON CRIB              63     360/ 21/ 24   N/A
BURNHAM HARBOR             64      10/ 14/ 16   N/A
CALUMET HARBOR             65     360/ 12/ 18 1019.5S
MICHIGAN CITY              64     350/ 23/ 25   N/A
$$

ILZ025>027-034>036-040-047-049-050-058-095>099-231500-
WEST-CENTRAL ILLINOIS

CITY           SKY/WX    TMP DP  RH WIND       PRES   REMARKS
QUINCY         MOSUNNY   75  68  78 NE14      30.12R
GALESBURG*     CLOUDY    72  66  83 NE14      30.14R
MACOMB*        MOSUNNY   71  67  85 NE13      30.15R
JACKSONVILLE*  PTSUNNY   75  69  80 NE16      30.10S
PITTSFIELD*    PTSUNNY   77  69  77 NE9G16    30.11R
$$

ILZ028>032-037-038-041>044-048-051>054-059>061-231500-
CENTRAL ILLINOIS

CITY           SKY/WX    TMP DP  RH WIND       PRES   REMARKS
PONTIAC        SUNNY     70  59  68 NE14      30.11F
BLOOMINGTON    MOSUNNY   68  57  67 NE17      30.12R
DECATUR        MOSUNNY   73  72  94 NE14G20   30.08R
PEORIA         SUNNY     73  58  59 NE15      30.12R
LACON*         SUNNY     69  56  64 NE10G16   30.13R
LINCOLN*       SUNNY     73  63  70 NE13      30.07S
SPRINGFIELD    CLOUDY    76  67  73 N16       30.09R
TAYLORVILLE    CLOUDY    72  64  78 NE16G23   30.08R
$$

ILZ033-039-045-046-055>057-062-063-231500-
EAST-CENTRAL ILLINOIS

CITY           SKY/WX    TMP DP  RH WIND       PRES   REMARKS
CHAMPAIGN      MOSUNNY   71  62  73 N17G23    30.07R
RANTOUL*       MOSUNNY   71  58  64 N18G26    30.09S
MATTOON        CLOUDY    73  69  87 NE10      30.05R
PARIS*         CLOUDY    72  69  91 N8        30.06R THUNDER FOG
$$

ILZ079-100>102-231500-
SOUTHWEST ILLINOIS

CITY           SKY/WX    TMP DP  RH WIND       PRES   REMARKS
ALTON          CLOUDY    79  77  94 N12       30.05R HX  83
BELLEVILLE     MOSUNNY   82  77  85 N10       30.02S HX  90
CAHOKIA*       PTSUNNY   83  76  79 N13       30.04R HX  91
SPARTA*        MOSUNNY   79  72  78 W5        30.03S HX  82
$$

ILZ064>066-069>071-074>076-080>082-084>086-088>090-092>094-231500-
SOUTH-CENTRAL ILLINOIS

CITY           SKY/WX    TMP DP  RH WIND       PRES   REMARKS
CARBONDALE     CLOUDY    76  70  82 S3        30.03F
CAIRO*         PTSUNNY   81  73  76 S6        30.04S HX  86
MARION         CLOUDY    77  72  83 MISG      30.05R
MT. VERNON     CLOUDY    73  66  78 SE10      30.06F
CENTRALIA*     PTSUNNY   75  68  78 E5        30.05R
SALEM*         CLOUDY    76  72  88 SE5       30.05R
METROPOLIS*    PTSUNNY   78  68  71 S3        30.04S HX  80
$$

ILZ067-068-072-073-078-083-087-091-231500-
SOUTHEAST ILLINOIS

CITY           SKY/WX    TMP DP  RH WIND       PRES   REMARKS
FLORA*         CLOUDY    71  70  96 SW7       30.04S
FAIRFIELD*     CLOUDY    72  70  94 S8        30.05F THUNDER
HARRISBURG*    TSTM      70  69  96 E24G35    30.11R VSB 1/2
ROBINSON*      CLOUDY    71  70  95 N3        30.06R
CARMI*         TSTM      70  70 100 S7        30.07F
$$

ABBREVIATIONS USED IN REMARKS
   TC - TEMPERATURE IN CELSIUS
  WCI - WIND CHILL INDEX
   HX - HEAT INDEX
  VSB - VISIBILITY
$$




USA.gov is the U.S. government's official web portal to all federal, state and local government web resources and services.